Location: Harrison
(47.4490°N, 116.7734°W)
Time: 12:15:54
(UTC+00:00)

Envisat - Visible Passes

Search period start: 20 July 2024 00:00
Search period end: 30 July 2024 00:00
Orbit: 762 x 764 km, 98.3° (Epoch: 20 July)

Date Brightness Start Highest point End Pass type
(mag) Time Alt. Az. Time Alt. Az. Time Alt. Az.
20 Jul 4.9 10:05:34 10° NE 10:09:38 24° E 10:13:40 10° SE visible
21 Jul 5.6 09:30:25 10° ENE 09:31:45 11° E 09:33:05 10° E visible
21 Jul 3.1 11:06:26 10° NNE 11:11:32 80° ESE 11:16:37 10° SSW visible
22 Jul 4.2 10:29:17 10° NNE 10:34:01 38° E 10:38:43 10° SSE visible
23 Jul 5.3 09:52:48 10° NE 09:56:17 18° E 09:59:46 10° SE visible
23 Jul 3.1 11:30:41 10° N 11:35:43 64° WNW 11:40:43 10° SSW visible
24 Jul 3.4 10:53:16 10° NNE 10:58:19 62° ESE 11:03:20 10° S visible
25 Jul 4.6 10:16:18 10° NE 10:20:44 29° E 10:25:08 10° SSE visible
26 Jul 5.5 09:40:16 10° NE 09:42:55 14° E 09:45:34 10° ESE visible
26 Jul 3.0 11:17:26 10° NNE 11:22:32 82° WNW 11:27:37 10° SSW visible
27 Jul 3.8 10:40:09 10° NNE 10:45:04 48° E 10:49:57 10° S visible
28 Jul 5.0 10:03:23 10° NE 10:07:24 23° E 10:11:23 10° SE visible
28 Jul 3.3 11:41:44 10° N 11:46:39 51° WNW 11:51:33 10° SW visible
29 Jul 5.7 09:28:30 10° ENE 09:29:31 11° E 09:30:32 10° E visible
29 Jul 3.1 11:04:13 10° NNE 11:09:20 78° ESE 11:14:24 10° S visible
